TimeMDT,TemperatureF,Dew PointF,Humidity,Sea Level PressureIn,VisibilityMPH,Wind Direction,Wind SpeedMPH,Gust SpeedMPH,PrecipitationIn,Events,Conditions,WindDirDegrees,DateUTC
12:03 AM,30.2,28.4,93,30.39,10.0,WNW,3.5,-,N/A,,Overcast,300,2012-10-06 06:03:00
12:53 AM,30.0,28.9,96,30.47,10.0,WNW,4.6,-,N/A,,Overcast,290,2012-10-06 06:53:00
1:53 AM,28.0,27.0,96,30.49,10.0,WNW,3.5,-,N/A,,Overcast,300,2012-10-06 07:53:00
2:53 AM,26.1,25.0,96,30.50,10.0,West,3.5,-,N/A,,Scattered Clouds,270,2012-10-06 08:53:00
3:53 AM,24.1,23.0,96,30.51,10.0,Calm,Calm,-,N/A,,Mostly Cloudy,0,2012-10-06 09:53:00
4:53 AM,21.0,21.0,100,30.51,8.0,West,3.5,-,N/A,,Clear,270,2012-10-06 10:53:00
5:33 AM,21.2,19.4,93,30.38,8.0,Calm,Calm,-,N/A,,Scattered Clouds,0,2012-10-06 11:33:00
5:42 AM,21.2,19.4,93,30.38,9.0,Calm,Calm,-,N/A,,Mostly Cloudy,0,2012-10-06 11:42:00
5:53 AM,23.0,21.0,92,30.50,9.0,Calm,Calm,-,N/A,,Overcast,0,2012-10-06 11:53:00
6:53 AM,26.1,25.0,96,30.50,10.0,Calm,Calm,-,N/A,,Overcast,0,2012-10-06 12:53:00
7:10 AM,24.8,24.8,100,30.38,10.0,Calm,Calm,-,N/A,,Overcast,0,2012-10-06 13:10:00
7:37 AM,21.2,21.2,100,30.38,7.0,Calm,Calm,-,N/A,,Scattered Clouds,0,2012-10-06 13:37:00
7:53 AM,19.9,19.9,100,30.52,5.0,South,5.8,-,N/A,,Scattered Clouds,180,2012-10-06 13:53:00
7:57 AM,19.4,19.4,100,30.38,6.0,South,5.8,-,N/A,,Mostly Cloudy,190,2012-10-06 13:57:00
8:53 AM,21.9,21.0,96,30.51,10.0,South,3.5,-,N/A,,Mostly Cloudy,170,2012-10-06 14:53:00
9:01 AM,21.2,21.2,100,30.37,10.0,SSE,3.5,-,N/A,,Scattered Clouds,160,2012-10-06 15:01:00
9:53 AM,27.0,24.1,89,30.49,10.0,Calm,Calm,-,N/A,,Clear,0,2012-10-06 15:53:00
10:53 AM,30.9,26.1,82,30.47,10.0,Calm,Calm,-,N/A,,Clear,0,2012-10-06 16:53:00
11:53 AM,33.1,28.0,82,30.45,10.0,Variable,3.5,-,N/A,,Clear,0,2012-10-06 17:53:00
12:53 PM,37.0,26.1,65,30.42,10.0,SSE,8.1,-,N/A,,Clear,160,2012-10-06 18:53:00
1:53 PM,39.0,23.0,53,30.39,10.0,SSW,5.8,-,N/A,,Clear,210,2012-10-06 19:53:00
2:53 PM,39.0,19.0,45,30.37,10.0,Calm,Calm,-,N/A,,Clear,0,2012-10-06 20:53:00
3:53 PM,41.0,16.0,36,30.35,10.0,SE,3.5,-,N/A,,Clear,140,2012-10-06 21:53:00
4:53 PM,41.0,17.1,38,30.34,10.0,SSE,3.5,-,N/A,,Clear,160,2012-10-06 22:53:00
5:53 PM,39.9,10.9,31,30.32,10.0,South,4.6,-,N/A,,Clear,190,2012-10-06 23:53:00
6:53 PM,32.0,24.1,73,30.33,10.0,Calm,Calm,-,N/A,,Clear,0,2012-10-07 00:53:00
7:53 PM,30.0,21.9,72,30.35,10.0,South,3.5,-,N/A,,Clear,180,2012-10-07 01:53:00
8:53 PM,27.0,21.9,81,30.35,10.0,South,4.6,-,N/A,,Clear,180,2012-10-07 02:53:00
9:53 PM,27.0,21.9,81,30.32,10.0,South,6.9,-,N/A,,Clear,180,2012-10-07 03:53:00
10:53 PM,28.9,21.0,72,30.28,10.0,Calm,Calm,-,N/A,,Clear,0,2012-10-07 04:53:00
11:53 PM,32.0,23.0,69,30.25,10.0,Calm,Calm,-,N/A,,Overcast,0,2012-10-07 05:53:00